Weather History for Baltimore Martin, MD

Change the Weather History Date:

Wednesday, November 21, 2012

  Actual Average Record
Temperature  
Mean Temperature 44 °F -  
Max Temperature 57 °F 51 °F 71 °F (2003)
Min Temperature 32 °F 36 °F 28 °F (1996)
Degree Days  
Heating Degree Days 20    
Moisture  
Dew Point 34 °F    
Average Humidity 80    
Maximum Humidity 100    
Minimum Humidity 38    
Precipitation  
Precipitation 0.00 in - - ()
Sea Level Pressure  
Sea Level Pressure 30.20 in    
Wind  
Wind Speed 1 mph (NE)    
Max Wind Speed 5 mph    
Max Gust Speed -    
Visibility 8 miles    
Events      
Averages and records for this station are not official NWS values.
T = Trace of Precipitation, MM = Missing Value Source: NWS Daily Summary

Daily Weather History Graph

Daily Weather History Graph

Search for Another Location

Airport:

Trip Planner

Search our weather history database for the weather conditions in past years. The results will help you decide how hot, cold, wet, or windy it might be!

Date:

Astronomy

Nov. 21, 2012 Rise Set
Actual Time 6:56 AM EST 4:46 PM EST
Civil Twilight 6:27 AM EST 5:15 PM EST
Nautical Twilight 5:54 AM EST 5:48 PM EST
Astronomical Twilight 5:22 AM EST 6:20 PM EST
Moon 1:00 PM EST (11/21) 12:15 AM EST (11/21)
Length of Visible Light 10h 48m
Length of Day
9h 50m
First Quarter, 61% of the Moon is Illuminated
Nov 21
First Quarter
Nov 28
Full
Dec 6
Last Quarter
Dec 13
New
Dec 20
First Quarter

Hourly Weather History & Observations

Time (EST) Temp. Dew Point Humidity Pressure Visibility Wind Dir Wind Speed Gust Speed Precip Events Conditions
12:12 AM 37.4 °F 37.4 °F 100% 30.16 in 7.0 mi Calm Calm - N/A   Clear
12:33 AM 39.2 °F 37.4 °F 93% 30.16 in 7.0 mi Calm Calm - N/A   Clear
12:54 AM 37.4 °F 35.6 °F 93% 30.15 in 7.0 mi Calm Calm - N/A   Clear
1:18 AM 39.2 °F 37.4 °F 93% 30.15 in 7.0 mi Calm Calm - N/A   Clear
1:39 AM 35.6 °F 33.8 °F 93% 30.15 in 5.0 mi Calm Calm - N/A   Clear
2:00 AM 37.4 °F 35.6 °F 93% 30.15 in 7.0 mi Calm Calm - N/A   Clear
2:21 AM 35.6 °F 35.6 °F 100% 30.16 in 7.0 mi Calm Calm - N/A   Clear
2:42 AM 35.6 °F 35.6 °F 100% 30.16 in 5.0 mi Calm Calm - N/A   Clear
3:03 AM 35.6 °F 33.8 °F 93% 30.16 in 5.0 mi Calm Calm - N/A   Clear
3:24 AM 35.6 °F 33.8 °F 93% 30.16 in 7.0 mi Calm Calm - N/A   Clear
3:45 AM 35.6 °F 33.8 °F 93% 30.16 in 5.0 mi Calm Calm - N/A   Clear
4:06 AM 33.8 °F 33.8 °F 100% 30.16 in 5.0 mi Calm Calm - N/A   Clear
4:27 AM 33.8 °F 33.8 °F 100% 30.17 in 4.0 mi Calm Calm - N/A   Clear
4:36 AM 32.0 °F 32.0 °F 100% 30.17 in 7.0 mi Calm Calm - N/A   Clear
5:45 AM 33.8 °F 32.0 °F 93% 30.18 in 7.0 mi Calm Calm - N/A   Clear
6:45 AM 35.6 °F 33.8 °F 93% 30.20 in 5.0 mi Calm Calm - N/A   Haze
7:45 AM 35.6 °F 35.6 °F 100% 30.21 in 4.0 mi Calm Calm - N/A   Clear
8:45 AM 44.6 °F 35.6 °F 71% 30.22 in 10.0 mi Calm Calm - N/A   Clear
9:55 AM 50.0 °F 35.6 °F 58% 30.23 in 10.0 mi NNE 3.5 mph - N/A   Clear
10:45 AM 53.6 °F 35.6 °F 51% 30.23 in 10.0 mi NNE 3.5 mph - N/A   Clear
11:45 AM 55.4 °F 32.0 °F 41% 30.21 in 10.0 mi NNE 4.6 mph - N/A   Clear
12:45 PM 55.4 °F 32.0 °F 41% 30.19 in 10.0 mi NNE 4.6 mph - N/A   Clear
1:45 PM 57.2 °F 32.0 °F 38% 30.18 in 10.0 mi North 4.6 mph - N/A   Clear
2:45 PM 55.4 °F 35.6 °F 47% 30.18 in 10.0 mi SE 4.6 mph - N/A   Partly Cloudy
3:50 PM 53.6 °F 35.6 °F 51% 30.18 in 10.0 mi SSE 3.5 mph - N/A   Partly Cloudy
4:50 PM 50.0 °F 33.8 °F 54% 30.20 in 10.0 mi Calm Calm - N/A   Clear
5:50 PM 46.4 °F 35.6 °F 66% 30.21 in 10.0 mi Calm Calm - N/A   Clear
6:50 PM 42.8 °F 32.0 °F 66% 30.23 in 10.0 mi Calm Calm - N/A   Clear
7:50 PM 41.0 °F 32.0 °F 70% 30.24 in 10.0 mi Calm Calm - N/A   Clear
8:50 PM 41.0 °F 32.0 °F 70% 30.24 in 10.0 mi Calm Calm - N/A   Clear
9:27 PM 37.4 °F 32.0 °F 81% 30.24 in 10.0 mi Calm Calm - N/A   Clear
9:45 PM 39.2 °F 35.6 °F 87% 30.24 in 10.0 mi Calm Calm - N/A   Clear
9:48 PM 37.4 °F 33.8 °F 87% 30.24 in 10.0 mi Calm Calm - N/A   Clear
10:12 PM 35.6 °F 32.0 °F 87% 30.24 in 10.0 mi Calm Calm - N/A   Clear
10:33 PM 37.4 °F 33.8 °F 87% 30.23 in 10.0 mi Calm Calm - N/A   Clear
10:54 PM 35.6 °F 32.0 °F 87% 30.23 in 10.0 mi Calm Calm - N/A   Clear
11:15 PM 35.6 °F 32.0 °F 87% 30.23 in 10.0 mi Calm Calm - N/A   Clear
11:36 PM 35.6 °F 32.0 °F 87% 30.23 in 10.0 mi Calm Calm - N/A   Clear
11:57 PM 35.6 °F 32.0 °F 87% 30.24 in 10.0 mi Calm Calm - N/A   Clear